User: anonymous   Login
Location: Melbourne
(37.8170°S, 144.9670°E)
Time: 11:25:29
(UTC+11:00)
Language:

Aureole 2 Rocket - Orbit

View from above orbital plane
View from above orbital plane
View from above satellite
View from above satellite

Ground track
Ground track

The orbit data is extracted from the following two-line orbital elements,

1 07004U 73107B   15028.42051182  .00026404  00000-0  61989-3 0  8382
2 07004 073.9486 121.3271 0269240 211.5043 221.7264 15.12064238104287
Epoch (UTC): 28 January 2015 10:05:32
Eccentricity: 0.0269240
inclination: 73.9486°
perigee height: 344 km
apogee height: 716 km
right ascension of ascending node: 121.3271°
argument of perigee: 211.5043°
revolutions per day: 15.12064238
mean anomaly at epoch: 221.7264°
orbit number at epoch: 10428

The dashed part of the orbit path shows where the satellite is in the earth's shadow,  

DLR